Terug naar catalogus

SL-14 DEB *

ActiefPO
NORAD 47086·DEBRIS·🇷🇺 Russia

Gelanceerd Aug 15, 1991 vanaf Plesetsk Cosmodrome

Loading…

Volgende Passages (komende 24 uur)

TLE

VersSource: Space-Track

Epoch: Sep 13, 2026, 10:54 UTC

1 47086U 91056DL  26256.45425013  .00000686  00000-0  29476-3 0  9992
2 47086  82.5534 162.3284 0011076  78.8740 281.3687 14.23418563302691

Volg SL-14 DEB * in realtime met AllMySat

Download on the App Store